GW5167 Weather Reports


time (UTC)temp
C
wind
direction
speed
KPH
gust
KPH
rain 1hr
cm
rain 24hr
cm
rain mn
cm
humidity
%
barometer
mb
20260906125928 21 168 3.2 4.8 0.00 0.00 0.00 92 1016.9
20260906125425 21 137 4.8 6.4 0.00 0.00 0.00 92 1016.9
20260906124920 21 72 3.2 4.8 0.00 0.00 0.00 93 1016.9
20260906124416 21 222 0.0 1.6 0.00 0.00 0.00 93 1016.9
20260906123916 21 159 1.6 1.6 0.00 0.00 0.00 93 1016.8
20260906123410 21 90 4.8 9.7 0.00 0.00 0.00 93 1016.8
20260906122910 21 96 1.6 1.6 0.00 0.00 0.00 93 1016.7
20260906122405 21 156 3.2 3.2 0.00 0.00 0.00 93 1016.7
20260906121902 21 137 6.4 6.4 0.00 0.00 0.00 93 1016.6
20260906121357 21 135 1.6 3.2 0.00 0.00 0.00 93 1016.7
20260906120853 21 192 4.8 4.8 0.00 0.00 0.00 94 1016.6
20260906120349 20 154 6.4 6.4 0.00 0.00 0.00 94 1016.4
20260906115845 20 141 1.6 3.2 0.00 0.00 0.00 94 1016.5
20260906115340 20 202 1.6 1.6 0.00 0.00 0.00 95 1016.5
20260906114839 20 196 3.2 4.8 0.00 0.00 0.00 95 1016.3
20260906114335 20 210 0.0 1.6 0.00 0.00 0.00 95 1016.3
20260906113830 20 153 1.6 3.2 0.00 0.00 0.00 95 1016.4
20260906113329 20 167 1.6 3.2 0.00 0.00 0.00 95 1016.2
20260906112824 20 175 1.6 1.6 0.00 0.00 0.00 95 1016.4
20260906112321 20 185 1.6 3.2 0.00 0.00 0.00 95 1016.3
20260906111820 20 193 0.0 0.0 0.00 0.00 0.00 94 1016.3
20260906111319 20 187 0.0 1.6 0.00 0.00 0.00 94 1016.3
20260906110814 20 158 1.6 3.2 0.00 0.00 0.00 94 1016.2
20260906110310 21 166 1.6 1.6 0.00 0.00 0.00 94 1016.2
20260906105809 21 188 0.0 0.0 0.00 0.00 0.00 94 1016.1
20260906105306 21 186 1.6 3.2 0.00 0.00 0.00 95 1016.1
20260906104801 21 180 0.0 0.0 0.00 0.00 0.00 95 1016.2
20260906104259 21 148 4.8 4.8 0.00 0.00 0.00 96 1016.1
20260906103757 21 105 4.8 6.4 0.00 0.00 0.00 96 1016.3
20260906103257 20 182 1.6 1.6 0.00 0.00 0.00 97 1016.3
20260906102753 20 151 4.8 4.8 0.00 0.00 0.00 97 1016.3
20260906102251 20 211 0.0 0.0 0.00 0.00 0.00 97 1016.2
20260906101747 20 193 0.0 0.0 0.00 0.00 0.00 97 1016.1
20260906101242 20 176 3.2 3.2 0.00 0.00 0.00 97 1016.1
20260906100737 20 209 0.0 0.0 0.00 0.00 0.00 97 1016.0
20260906100237 20 199 0.0 0.0 0.00 0.00 0.00 96 1016.2
20260906095732 20 202 0.0 0.0 0.00 0.00 0.00 96 1015.9
20260906095227 20 165 0.0 0.0 0.00 0.00 0.00 96 1016.1
20260906094726 20 203 0.0 0.0 0.00 0.00 0.00 96 1016.1
20260906094222 20 205 0.0 0.0 0.00 0.00 0.00 96 1016.1
20260906093718 20 208 0.0 0.0 0.00 0.00 0.00 96 1015.7
20260906093213 20 221 0.0 0.0 0.00 0.00 0.00 95 1015.6
20260906092709 20 218 0.0 0.0 0.00 0.00 0.00 95 1015.6
20260906092208 20 173 1.6 3.2 0.00 0.00 0.00 95 1015.5
20260906091704 20 208 0.0 0.0 0.00 0.00 0.00 94 1015.4
20260906091200 21 223 0.0 0.0 0.00 0.00 0.00 94 1015.3
20260906090656 21 158 3.2 3.2 0.00 0.00 0.00 94 1015.3
20260906090155 21 126 1.6 1.6 0.00 0.00 0.00 94 1015.1
20260906085655 21 174 4.8 4.8 0.00 0.00 0.00 94 1015.2
20260906085154 21 177 0.0 1.6 0.00 0.00 0.00 94 1015.1
20260906084649 21 107 1.6 1.6 0.00 0.00 0.00 94 1015.0
20260906084148 21 174 0.0 1.6 0.00 0.00 0.00 94 1015.1
20260906083643 21 196 0.0 1.6 0.00 0.00 0.00 94 1015.2
20260906083139 21 150 0.0 1.6 0.00 0.00 0.00 94 1015.1
20260906082634 21 210 0.0 1.6 0.00 0.00 0.00 94 1015.0
20260906082129 21 192 0.0 1.6 0.00 0.00 0.00 94 1015.0
20260906081625 21 218 1.6 3.2 0.00 0.00 0.00 94 1015.1
20260906081120 21 115 1.6 1.6 0.00 0.00 0.00 93 1015.1
20260906080617 21 235 1.6 1.6 0.00 0.00 0.00 93 1015.1
20260906080113 21 241 3.2 6.4 0.00 0.00 0.00 94 1015.2
20260906075606 21 39 1.6 1.6 0.00 0.00 0.00 94 1015.2
20260906075102 21 72 0.0 1.6 0.00 0.00 0.00 93 1015.1
20260906074557 21 249 0.0 1.6 0.00 0.00 0.00 93 1015.1
20260906074055 21 82 4.8 6.4 0.00 0.00 0.00 93 1015.0
20260906073550 21 140 1.6 1.6 0.00 0.00 0.00 93 1015.0
20260906073046 21 129 3.2 3.2 0.00 0.00 0.00 94 1015.0
20260906072540 21 131 3.2 3.2 0.00 0.00 0.00 94 1015.1
20260906072037 21 155 1.6 1.6 0.00 0.00 0.00 94 1015.2
20260906071533 21 216 0.0 0.0 0.00 0.00 0.00 94 1015.3
20260906071028 21 170 0.0 0.0 0.00 0.00 0.00 93 1015.5
20260906070524 21 112 4.8 4.8 0.00 0.00 0.00 94 1015.4
20260906070020 21 125 3.2 4.8 0.00 0.00 0.00 94 1015.3
20260906065519 21 134 3.2 3.2 0.00 0.00 0.00 94 1015.4
20260906065015 21 199 3.2 3.2 0.00 0.00 0.00 94 1015.5
20260906064511 21 229 1.6 3.2 0.00 0.00 0.00 94 1015.6
20260906064011 21 226 0.0 0.0 0.00 0.00 0.00 94 1015.4
20260906063506 21 212 0.0 0.0 0.00 0.00 0.00 94 1015.9
20260906063001 21 162 0.0 1.6 0.00 0.00 0.00 94 1015.6
20260906062456 21 131 0.0 1.6 0.00 0.00 0.00 94 1015.7
20260906061951 21 189 0.0 0.0 0.00 0.00 0.00 94 1015.9
20260906061447 21 219 0.0 0.0 0.00 0.00 0.00 93 1015.7
20260906060941 21 199 0.0 0.0 0.00 0.00 0.00 93 1016.0
20260906060438 21 195 0.0 0.0 0.00 0.00 0.00 93 1015.7
20260906055935 22 100 3.2 3.2 0.00 0.00 0.00 93 1015.9
20260906055430 22 159 1.6 1.6 0.00 0.00 0.00 93 1015.9
20260906054925 22 176 1.6 1.6 0.00 0.00 0.00 93 1015.7
20260906054420 22 124 3.2 3.2 0.00 0.00 0.00 93 1015.5
20260906053916 22 187 0.0 1.6 0.00 0.00 0.00 93 1015.6
20260906053412 22 193 0.0 1.6 0.00 0.00 0.00 93 1015.7
20260906052908 22 216 0.0 0.0 0.00 0.00 0.00 93 1015.4
20260906052404 22 213 0.0 0.0 0.00 0.00 0.00 93 1015.5
20260906051900 22 174 0.0 0.0 0.00 0.00 0.00 93 1015.6
20260906051400 22 146 1.6 1.6 0.00 0.00 0.00 92 1015.4
20260906050856 22 268 0.0 0.0 0.00 0.00 0.00 92 1015.4
20260906050350 22 326 0.0 1.6 0.00 0.00 0.00 92 1015.4
20260906045849 22 261 0.0 0.0 0.00 0.00 0.00 91 1015.4
20260906045343 22 315 0.0 0.0 0.00 0.00 0.00 91 1015.1
20260906044840 22 175 1.6 1.6 0.00 0.00 0.00 91 1015.2
20260906044334 22 188 0.0 1.6 0.00 0.00 0.00 91 1015.1
20260906043830 22 215 0.0 0.0 0.00 0.00 0.00 92 1015.3
20260906043326 22 169 0.0 0.0 0.00 0.00 0.00 92 1015.2
20260906042826 22 272 0.0 0.0 0.00 0.00 0.00 92 1015.2
20260906042325 22 198 0.0 0.0 0.00 0.00 0.00 92 1015.3
20260906041821 22 160 0.0 1.6 0.00 0.00 0.00 91 1015.2
20260906041316 22 173 0.0 0.0 0.00 0.00 0.00 91 1015.0
20260906040811 22 146 3.2 3.2 0.00 0.00 0.00 91 1015.2
20260906040306 23 144 1.6 3.2 0.00 0.00 0.00 91 1015.3
20260906035801 23 207 0.0 0.0 0.00 0.00 0.00 91 1015.1
20260906035257 23 199 0.0 0.0 0.00 0.00 0.00 91 1015.2
20260906034751 23 142 0.0 1.6 0.00 0.00 0.00 91 1015.1
20260906034246 23 166 3.2 4.8 0.00 0.00 0.00 90 1015.1
20260906033742 23 238 0.0 0.0 0.00 0.00 0.00 90 1015.2
20260906033242 23 203 0.0 1.6 0.00 0.00 0.00 90 1015.2
20260906032738 23 210 0.0 0.0 0.00 0.00 0.00 91 1015.2
20260906032238 23 254 0.0 1.6 0.00 0.00 0.00 91 1015.3
20260906031733 23 198 1.6 1.6 0.00 0.00 0.00 91 1015.3
20260906031229 23 15 0.0 1.6 0.00 0.00 0.00 91 1015.0
20260906030728 23 185 1.6 1.6 0.00 0.00 0.00 91 1015.0
20260906030223 23 222 0.0 1.6 0.00 0.00 0.00 91 1015.0
20260906025723 23 204 1.6 1.6 0.00 0.00 0.00 91 1014.9
20260906025218 23 65 3.2 3.2 0.00 0.00 0.00 92 1014.8
20260906024717 23 50 3.2 3.2 0.00 0.00 0.00 92 1014.8
20260906024216 23 171 1.6 1.6 0.00 0.00 0.00 92 1014.8
20260906023713 23 121 0.0 1.6 0.00 0.00 0.00 92 1014.7
20260906023213 23 40 0.0 0.0 0.00 0.00 0.00 91 1014.7
20260906022708 23 208 0.0 0.0 0.00 0.00 0.00 91 1014.6
20260906022203 23 36 0.0 1.6 0.00 0.00 0.00 92 1014.5
20260906021659 23 260 0.0 1.6 0.00 0.00 0.00 92 1014.4
20260906021157 23 254 0.0 0.0 0.00 0.00 0.00 92 1014.3
20260906020653 23 207 0.0 0.0 0.00 0.00 0.00 91 1014.5
20260906020147 23 206 0.0 0.0 0.00 0.00 0.00 91 1014.3
20260906015641 23 259 0.0 0.0 0.00 0.00 0.00 91 1014.3
20260906015141 23 256 0.0 1.6 0.00 0.00 0.00 90 1014.2
20260906014641 23 314 0.0 0.0 0.00 0.00 0.00 90 1014.0
20260906014137 23 298 0.0 0.0 0.00 0.00 0.00 89 1013.9
20260906013632 24 277 0.0 0.0 0.00 0.00 0.00 88 1013.9
20260906013128 24 269 0.0 0.0 0.00 0.00 0.00 88 1014.1
20260906012627 24 68 0.0 1.6 0.00 0.00 0.00 87 1013.9
20260906012122 25 336 1.6 1.6 0.00 0.00 0.00 87 1013.9
20260906011618 25 233 0.0 0.0 0.00 0.00 0.00 86 1013.7
20260906011118 25 134 1.6 3.2 0.00 0.00 0.00 86 1013.8
20260906010614 25 298 1.6 3.2 0.00 0.00 0.00 86 1013.9
20260906010110 25 251 0.0 0.0 0.00 0.00 0.00 86 1013.8
20260906005609 25 206 0.0 0.0 0.00 0.00 0.00 86 1013.8
20260906005108 25 174 0.0 1.6 0.00 0.00 0.00 86 1013.7
20260906004608 25 188 0.0 0.0 0.00 0.00 0.00 85 1013.7
20260906004103 25 198 1.6 1.6 0.00 0.00 0.00 85 1013.8
20260906003558 25 234 0.0 0.0 0.00 0.00 0.00 84 1013.9
20260906003054 25 127 1.6 3.2 0.00 0.00 0.00 84 1013.7
20260906002548 25 113 3.2 3.2 0.00 0.00 0.00 83 1013.7
20260906002043 25 219 0.0 1.6 0.00 0.00 0.00 83 1013.6
20260906001539 25 118 1.6 3.2 0.00 0.00 0.00 83 1013.6
20260906001033 25 180 3.2 3.2 0.00 0.00 0.00 82 1013.7
20260906000529 26 81 3.2 3.2 0.00 0.00 0.00 83 1013.4
20260906000024 26 204 0.0 0.0 0.00 0.00 0.00 82 1013.5
20260905235524 26 197 0.0 0.0 0.00 0.00 0.00 82 1013.5
20260905235019 26 168 1.6 1.6 0.00 0.00 0.00 82 1013.5
20260905234514 26 128 1.6 3.2 0.00 0.00 0.00 82 1013.6
20260905234008 26 253 0.0 0.0 0.00 0.00 0.00 82 1013.6
20260905233503 26 119 3.2 4.8 0.00 0.00 0.00 82 1013.5
20260905233002 26 233 0.0 1.6 0.00 0.00 0.00 82 1013.5
20260905232458 26 81 3.2 3.2 0.00 0.00 0.00 81 1013.4
20260905231954 26 79 3.2 3.2 0.00 0.00 0.00 81 1013.4
20260905231449 26 344 1.6 3.2 0.00 0.00 0.00 80 1013.3
20260905230946 26 292 1.6 1.6 0.00 0.00 0.00 80 1013.2
20260905230444 26 155 3.2 3.2 0.00 0.00 0.00 80 1013.0
20260905225942 27 146 3.2 4.8 0.00 0.00 0.00 80 1013.2
20260905225438 27 105 3.2 3.2 0.00 0.00 0.00 80 1013.4
20260905224933 27 55 1.6 3.2 0.00 0.00 0.00 80 1013.4
20260905224429 27 58 3.2 6.4 0.00 0.00 0.00 81 1013.3
20260905223928 27 58 1.6 3.2 0.00 0.00 0.00 81 1013.4
20260905223426 27 129 3.2 4.8 0.00 0.00 0.00 81 1013.1
20260905222920 27 42 3.2 4.8 0.00 0.00 0.00 80 1013.2
20260905222419 27 81 3.2 4.8 0.00 0.00 0.00 81 1013.1
20260905221915 27 11 8.0 11.3 0.00 0.00 0.00 81 1012.9
20260905221412 27 59 8.0 11.3 0.00 0.00 0.00 80 1012.7
20260905220908 28 54 6.4 9.7 0.00 0.00 0.00 79 1012.8
20260905220404 28 190 3.2 4.8 0.00 0.00 0.00 78 1012.7
20260905215903 28 180 3.2 3.2 0.00 0.00 0.00 79 1012.7
20260905215358 28 179 1.6 3.2 0.00 0.00 0.00 78 1012.6
20260905214855 28 91 6.4 11.3 0.00 0.00 0.00 78 1012.6
20260905214350 28 191 4.8 11.3 0.00 0.00 0.00 79 1012.4
20260905213844 28 127 4.8 6.4 0.00 0.00 0.00 78 1012.4
20260905213341 29 0 9.7 11.3 0.00 0.00 0.00 77 1012.5
20260905212836 28 52 6.4 9.7 0.00 0.00 0.00 77 1012.5
20260905212335 29 122 9.7 12.9 0.00 0.00 0.00 77 1012.6
20260905211830 28 57 8.0 12.9 0.00 0.00 0.00 79 1012.6
20260905211326 29 125 4.8 9.7 0.00 0.00 0.00 77 1012.7
20260905210822 29 26 6.4 9.7 0.00 0.00 0.00 77 1012.6
20260905210322 29 184 3.2 4.8 0.00 0.00 0.00 78 1012.7
20260905205820 29 54 3.2 3.2 0.00 0.00 0.00 79 1012.9
20260905205316 28 55 6.4 6.4 0.00 0.00 0.00 79 1012.8
20260905204814 28 45 4.8 11.3 0.00 0.00 0.00 78 1012.9
20260905204311 29 159 3.2 4.8 0.00 0.00 0.00 79 1012.9
20260905203809 29 84 6.4 9.7 0.00 0.00 0.00 78 1013.2
20260905203306 28 30 3.2 4.8 0.00 0.00 0.00 79 1013.2
20260905202800 29 9 4.8 9.7 0.00 0.00 0.00 77 1013.4
20260905202255 29 78 6.4 9.7 0.00 0.00 0.00 78 1013.3
20260905201751 29 167 4.8 6.4 0.00 0.00 0.00 78 1013.5
20260905201246 29 3 4.8 6.4 0.00 0.00 0.00 79 1013.5
20260905200741 28 92 0.0 1.6 0.00 0.00 0.00 79 1013.7
20260905200237 28 64 8.0 9.7 0.00 0.00 0.00 79 1013.5
20260905195734 28 11 8.0 9.7 0.00 0.00 0.00 79 1013.4
20260905195229 28 139 6.4 9.7 0.00 0.00 0.00 78 1013.6
20260905194725 28 53 6.4 9.7 0.00 0.00 0.00 79 1013.7
20260905194219 28 104 6.4 9.7 0.00 0.00 0.00 80 1013.8
20260905193713 28 36 9.7 11.3 0.00 0.00 0.00 81 1013.4
20260905193208 28 108 4.8 6.4 0.00 0.00 0.00 80 1013.5
20260905192704 28 70 8.0 9.7 0.00 0.00 0.00 79 1013.6
20260905192200 28 37 4.8 9.7 0.00 0.00 0.00 79 1013.9
20260905191659 28 74 4.8 6.4 0.00 0.00 0.00 79 1014.3
20260905191157 28 338 3.2 4.8 0.00 0.00 0.00 78 1014.5
20260905190656 28 51 4.8 4.8 0.00 0.00 0.00 82 1014.3
20260905190155 28 30 4.8 4.8 0.00 0.00 0.00 80 1014.4
20260905185654 28 49 4.8 6.4 0.00 0.00 0.00 80 1014.5
20260905185150 28 39 8.0 12.9 0.00 0.00 0.00 80 1014.6
20260905184649 28 24 3.2 4.8 0.00 0.00 0.00 82 1014.6
20260905184148 28 47 8.0 9.7 0.00 0.00 0.00 81 1014.5
20260905183647 29 233 3.2 4.8 0.00 0.00 0.00 80 1014.5
20260905183143 30 54 6.4 11.3 0.00 0.00 0.00 80 1014.5
20260905182642 29 339 3.2 4.8 0.00 0.00 0.00 82 1014.6
20260905182142 29 35 1.6 3.2 0.00 0.00 0.00 82 1014.8
20260905181637 29 351 3.2 4.8 0.00 0.00 0.00 81 1014.4
20260905181136 30 60 3.2 4.8 0.00 0.00 0.00 79 1014.6
20260905180631 30 45 6.4 9.7 0.00 0.00 0.00 78 1014.6
20260905180127 29 348 3.2 3.2 0.00 0.00 0.00 80 1014.6
20260905175626 29 11 3.2 6.4 0.00 0.00 0.00 81 1014.8
20260905175121 30 32 3.2 4.8 0.00 0.00 0.00 79 1014.7
20260905174617 30 353 3.2 3.2 0.00 0.00 0.00 79 1014.7
20260905174112 30 327 3.2 3.2 0.00 0.00 0.00 77 1014.8
20260905173608 30 279 1.6 3.2 0.00 0.00 0.00 78 1014.6
20260905173104 30 344 1.6 3.2 0.00 0.00 0.00 77 1014.5
20260905172602 30 64 3.2 4.8 0.00 0.00 0.00 76 1014.6
20260905172057 30 187 3.2 3.2 0.00 0.00 0.00 76 1014.3
20260905171554 30 80 6.4 9.7 0.00 0.00 0.00 75 1014.5
20260905171050 30 2 3.2 4.8 0.00 0.00 0.00 78 1014.4
20260905170546 30 133 3.2 3.2 0.00 0.00 0.00 78 1014.5
20260905170041 30 225 1.6 1.6 0.00 0.00 0.00 78 1014.4
20260905165531 30 99 3.2 3.2 0.00 0.00 0.00 78 1014.2
20260905165026 30 59 3.2 4.8 0.00 0.00 0.00 78 1014.3
20260905164525 30 69 1.6 4.8 0.00 0.00 0.00 78 1014.6
20260905164020 30 242 1.6 1.6 0.00 0.00 0.00 78 1014.5
20260905163516 30 81 3.2 4.8 0.00 0.00 0.00 78 1014.6
20260905163012 30 75 4.8 6.4 0.00 0.00 0.00 77 1014.6
20260905162508 29 45 3.2 6.4 0.00 0.00 0.00 80 1014.6
20260905162002 29 146 3.2 3.2 0.00 0.00 0.00 79 1014.5
20260905161502 28 18 3.2 3.2 0.00 0.00 0.00 81 1014.5
20260905161000 28 170 1.6 4.8 0.00 0.00 0.00 80 1014.6
20260905160454 28 60 6.4 9.7 0.00 0.00 0.00 79 1014.6
20260905155953 28 10 4.8 4.8 0.00 0.00 0.00 79 1014.4
20260905155448 28 131 3.2 6.4 0.00 0.00 0.00 82 1014.5
20260905154947 28 22 3.2 3.2 0.00 0.00 0.00 81 1014.5
20260905154442 28 167 1.6 1.6 0.00 0.00 0.00 80 1014.6
20260905153938 28 11 3.2 3.2 0.00 0.00 0.00 80 1014.6
20260905153434 28 10 4.8 4.8 0.00 0.00 0.00 79 1014.4
20260905152933 28 272 0.0 1.6 0.00 0.00 0.00 79 1014.5
20260905152433 28 348 3.2 4.8 0.00 0.00 0.00 78 1014.4
20260905151928 28 218 0.0 1.6 0.00 0.00 0.00 78 1014.2
20260905151424 28 33 1.6 1.6 0.00 0.00 0.00 79 1014.1
20260905150924 27 29 3.2 4.8 0.00 0.00 0.00 79 1014.1
20260905150424 27 64 1.6 3.2 0.00 0.00 0.00 80 1014.1
20260905145920 27 40 1.6 1.6 0.00 0.00 0.00 81 1014.0
20260905145416 26 197 1.6 3.2 0.00 0.00 0.00 82 1013.8
20260905144915 26 60 1.6 3.2 0.00 0.00 0.00 82 1014.0
20260905144411 26 281 1.6 1.6 0.00 0.00 0.00 82 1014.0
20260905143910 26 215 0.0 1.6 0.00 0.00 0.00 83 1013.9
20260905143404 26 215 0.0 1.6 0.00 0.00 0.00 84 1013.8
20260905142903 26 192 1.6 1.6 0.00 0.00 0.00 84 1013.7
20260905142402 26 86 1.6 3.2 0.00 0.00 0.00 84 1013.8
20260905141858 26 66 3.2 4.8 0.00 0.00 0.00 82 1013.8
20260905141353 26 134 1.6 3.2 0.00 0.00 0.00 83 1013.5
20260905140849 26 224 0.0 0.0 0.00 0.00 0.00 83 1013.7
20260905140349 25 41 3.2 3.2 0.00 0.00 0.00 84 1013.6
20260905135848 25 324 0.0 1.6 0.00 0.00 0.00 86 1013.8
20260905135344 25 266 0.0 1.6 0.00 0.00 0.00 86 1013.7
20260905134839 25 38 0.0 1.6 0.00 0.00 0.00 86 1013.6
20260905134337 25 38 1.6 3.2 0.00 0.00 0.00 87 1013.6
20260905133832 24 1 3.2 3.2 0.00 0.00 0.00 87 1013.6
20260905133328 24 62 0.0 0.0 0.00 0.00 0.00 88 1013.3
20260905132826 23 315 1.6 1.6 0.00 0.00 0.00 90 1013.4
20260905132323 23 358 0.0 1.6 0.00 0.00 0.00 93 1013.4
20260905131816 23 203 0.0 1.6 0.00 0.00 0.00 96 1013.0
20260905131312 22 276 0.0 0.0 0.00 0.00 0.00 98 1013.1
20260905130807 22 269 0.0 0.0 0.00 0.00 0.00 99 1013.0
20260905130306 22 269 0.0 0.0 0.00 0.00 0.00 98 1013.0